Stations météo

réclame
Mon MeteoGroup
Genova/Sestri, Italie (16120): Température de l'air & dewpoint: 17.07.2018 00:00:00 - 23.07.2018 00:00:00 (CEST)Genova/Sestri, Italie (16120): Vitesse du vent: 17.07.2018 00:00:00 - 23.07.2018 00:00:00 (CEST)Genova/Sestri, Italie (16120): Direction du vent: 17.07.2018 00:00:00 - 23.07.2018 00:00:00 (CEST)Genova/Sestri, Italie (16120): reduced air pressure: 17.07.2018 00:00:00 - 23.07.2018 00:00:00 (CEST)Genova/Sestri, Italie (16120): visibility: 17.07.2018 00:00:00 - 23.07.2018 00:00:00 (CEST)
Date & Time tt [°C] td [°C] ff [km/h] ff [knt] dd ppp [hPa] vv [km]
23.07.2018 00:00:00 24,0 19,0 8 4 N - 10
22.07.2018 23:00:00 24,2 19,2 8 4 NE 1011,4 10
22.07.2018 22:00:00 25,0 20,0 4 2 - - 10
22.07.2018 21:00:00 25,0 19,0 4 2 - - 10
22.07.2018 20:00:00 25,0 19,7 8 4 SW 1010,5 10
22.07.2018 19:00:00 25,0 20,0 5 3 SSW - 10
22.07.2018 18:00:00 26,0 20,0 4 2 - - 10
22.07.2018 17:00:00 25,5 19,6 9 5 SW 1010,4 10
22.07.2018 16:00:00 27,0 19,0 9 5 SSW - 10
22.07.2018 15:00:00 27,0 19,0 9 5 SW - 10
22.07.2018 14:00:00 26,5 19,8 9 5 SW 1011,4 10
22.07.2018 13:00:00 26,0 19,0 9 5 WSW - 10
22.07.2018 12:00:00 26,0 19,0 11 6 SW - 10
22.07.2018 11:00:00 25,8 19,1 5 3 SW 1011,1 10
22.07.2018 10:00:00 25,0 18,0 5 3 WSW - 10
22.07.2018 09:00:00 25,0 17,0 5 3 NNE - 10
22.07.2018 08:00:00 22,6 17,9 9 5 NNE 1010,3 10
22.07.2018 07:00:00 22,0 18,0 9 5 NNE - 10
22.07.2018 06:00:00 21,0 18,0 8 4 N - 10
22.07.2018 05:00:00 21,8 18,0 5 3 NE 1010,0 10
22.07.2018 04:00:00 - - - - - - -
22.07.2018 03:00:00 23,0 18,0 5 3 NW - 10
22.07.2018 02:00:00 22,6 18,8 15 8 NE 1010,6 10
22.07.2018 01:00:00 23,0 20,0 5 3 NE - 10
22.07.2018 00:00:00 23,0 20,0 4 2 - - 10
21.07.2018 23:00:00 23,1 20,7 9 5 NE 1011,2 10
21.07.2018 22:00:00 24,0 20,0 9 5 NNE - 10
21.07.2018 21:00:00 25,0 21,0 8 4 NW - 10
21.07.2018 20:00:00 24,8 21,2 5 3 W 1009,7 10
21.07.2018 19:00:00 25,0 21,0 5 3 SSE - 10
21.07.2018 18:00:00 25,0 20,0 4 2 - - 10
21.07.2018 17:00:00 25,7 20,5 8 4 SSW 1010,1 10
21.07.2018 16:00:00 27,0 20,0 4 2 - - 10
21.07.2018 15:00:00 26,0 20,0 8 4 S - 10
21.07.2018 14:00:00 26,6 20,2 9 5 SSW 1011,0 10
21.07.2018 13:00:00 26,0 20,0 2 1 - - 10
21.07.2018 12:00:00 24,0 20,0 8 4 WSW - 10
21.07.2018 11:00:00 23,0 20,3 8 4 NNW 1011,4 10
21.07.2018 10:00:00 22,0 20,0 11 6 S - 10
21.07.2018 09:00:00 23,0 21,0 8 4 N - 10
21.07.2018 08:00:00 22,9 19,2 9 5 NE 1010,5 10
21.07.2018 07:00:00 25,0 19,0 15 8 ENE - 10
21.07.2018 06:00:00 25,0 19,0 16 9 ESE - 10
21.07.2018 05:00:00 24,6 19,9 16 9 ESE 1010,5 10
21.07.2018 04:00:00 25,0 21,0 22 12 ESE - 10
21.07.2018 03:00:00 25,0 21,0 26 14 ESE - 10
21.07.2018 02:00:00 25,0 21,3 24 13 SE 1011,9 10
21.07.2018 01:00:00 25,0 21,0 21 11 SE - 10
21.07.2018 00:00:00 25,0 22,0 22 12 SSE - 10
20.07.2018 23:00:00 25,3 22,0 22 12 SE 1011,9 10
20.07.2018 22:00:00 25,0 21,0 21 11 ESE - 10
20.07.2018 21:00:00 25,0 21,0 16 9 ESE - 10
20.07.2018 20:00:00 25,3 21,1 13 7 SE 1012,3 10
20.07.2018 19:00:00 26,0 21,0 9 5 S - 10
20.07.2018 18:00:00 26,0 22,0 9 5 SSE - 10
20.07.2018 17:00:00 26,0 21,6 9 5 S 1013,2 10
20.07.2018 16:00:00 27,0 22,0 9 5 S - 10
20.07.2018 15:00:00 27,0 22,0 11 6 SSW - 10
20.07.2018 14:00:00 27,5 22,2 9 5 S 1014,3 10
20.07.2018 13:00:00 27,0 22,0 15 8 SSE - 10
20.07.2018 12:00:00 27,0 22,0 18 10 SE - 10
20.07.2018 11:00:00 26,6 22,1 15 8 SSE 1014,4 10
20.07.2018 10:00:00 26,0 22,0 15 8 ESE - 10
20.07.2018 09:00:00 25,0 22,0 13 7 ESE - 10
20.07.2018 08:00:00 25,0 21,2 8 4 E 1013,8 10
20.07.2018 07:00:00 25,0 21,0 8 4 E - 10
20.07.2018 06:00:00 25,0 21,0 8 4 E - 10
20.07.2018 05:00:00 24,2 20,4 8 4 NE 1013,7 10
20.07.2018 04:00:00 24,0 21,0 8 4 NNE - 10
20.07.2018 03:00:00 - - - - - - -
20.07.2018 02:00:00 24,2 20,6 8 4 NNE 1014,1 10
20.07.2018 01:00:00 24,0 20,0 8 4 NNE - 10
20.07.2018 00:00:00 25,0 21,0 5 3 NNE - 10
19.07.2018 23:00:00 24,8 21,3 4 2 - 1014,1 10
19.07.2018 22:00:00 25,0 21,0 4 2 - - 10
19.07.2018 21:00:00 25,0 21,0 4 2 - - 10
19.07.2018 20:00:00 25,8 21,6 8 4 SE 1013,5 10
19.07.2018 19:00:00 26,0 22,0 4 2 - - 10
19.07.2018 18:00:00 27,0 22,0 5 3 - - 10
19.07.2018 17:00:00 26,9 21,8 9 5 SSW 1014,3 10
19.07.2018 16:00:00 28,0 22,0 8 4 S - 10
19.07.2018 15:00:00 27,0 22,0 8 4 S - 10
19.07.2018 14:00:00 27,2 21,7 8 4 SSW 1014,7 10
19.07.2018 13:00:00 27,0 22,0 8 4 S - 10
19.07.2018 12:00:00 27,0 21,0 9 5 S - 10
19.07.2018 11:00:00 26,4 20,8 9 5 SSE 1014,4 10
19.07.2018 10:00:00 26,0 21,0 8 4 SSE - 10
19.07.2018 09:00:00 26,0 20,0 5 3 N - 10
19.07.2018 08:00:00 24,2 19,3 8 4 NNE 1014,0 10
19.07.2018 07:00:00 23,0 19,0 8 4 NNE - 10
19.07.2018 06:00:00 22,0 19,0 8 4 N - 10
19.07.2018 05:00:00 22,5 19,7 9 5 NNE 1014,1 10
19.07.2018 04:00:00 23,0 20,0 8 4 NNE - 10
19.07.2018 03:00:00 23,0 20,0 8 4 NNE - 10
19.07.2018 02:00:00 23,0 20,1 5 3 NNE 1014,4 10
19.07.2018 01:00:00 24,0 20,0 9 5 NE - 10
19.07.2018 00:00:00 24,0 21,0 8 4 NNE - 10
18.07.2018 23:00:00 24,6 21,2 5 3 NW 1014,2 10
18.07.2018 22:00:00 24,0 22,0 4 2 - - 10
18.07.2018 21:00:00 25,0 22,0 4 2 - - 10
18.07.2018 20:00:00 25,4 21,9 5 3 SE 1013,9 10
18.07.2018 19:00:00 26,0 22,0 5 3 SSW - 10
18.07.2018 18:00:00 26,0 22,0 5 3 S - 10
18.07.2018 17:00:00 26,5 21,9 5 3 S 1014,7 10
18.07.2018 16:00:00 27,0 22,0 8 4 S - 10
18.07.2018 15:00:00 27,0 22,0 5 3 SSW - 10
18.07.2018 14:00:00 26,4 21,6 8 4 S 1015,5 10
18.07.2018 13:00:00 27,0 22,0 5 3 S - 10
18.07.2018 12:00:00 26,0 22,0 9 5 S - 10
18.07.2018 11:00:00 26,2 21,6 8 4 S 1015,3 10
18.07.2018 10:00:00 26,0 21,0 5 3 SSE - 10
18.07.2018 09:00:00 26,0 19,0 4 2 - - 10
18.07.2018 08:00:00 23,7 15,7 8 4 NNE 1014,9 28
18.07.2018 07:00:00 22,0 17,0 8 4 NNE - 10
18.07.2018 06:00:00 22,0 17,0 9 5 N - 10
18.07.2018 05:00:00 - - - - - - -
18.07.2018 04:00:00 22,0 19,0 11 6 NNE - 10
18.07.2018 03:00:00 23,0 19,0 8 4 NNE - 10
18.07.2018 02:00:00 22,9 19,4 8 4 NNE 1014,7 10
18.07.2018 01:00:00 23,0 20,0 9 5 NNE - 10
18.07.2018 00:00:00 24,0 20,0 5 3 NNE - 10
17.07.2018 23:00:00 24,4 20,0 8 4 NNE 1013,9 40
17.07.2018 22:00:00 25,0 22,0 9 5 SE - 10
17.07.2018 21:00:00 26,0 22,0 11 6 SE - 10
17.07.2018 20:00:00 26,2 21,6 15 8 SE 1012,2 10
17.07.2018 19:00:00 27,0 22,0 9 5 SE - 10
17.07.2018 18:00:00 27,0 22,0 5 3 S - 10
17.07.2018 17:00:00 27,1 22,0 5 3 SSW 1012,3 10
17.07.2018 16:00:00 28,0 21,0 8 4 S - 10
17.07.2018 15:00:00 28,0 20,0 9 5 SW - 10
17.07.2018 14:00:00 27,5 20,0 9 5 SSW 1012,3 10
17.07.2018 13:00:00 27,0 20,0 13 7 WSW - 10
17.07.2018 12:00:00 27,0 20,0 15 8 WSW - 10
17.07.2018 11:00:00 26,0 19,0 13 7 WSW 1011,8 10
17.07.2018 10:00:00 27,0 17,0 9 5 ENE - 10
17.07.2018 09:00:00 25,0 18,0 8 4 WNW - 10
17.07.2018 08:00:00 24,1 17,3 4 2 - 1011,6 10
17.07.2018 07:00:00 22,0 18,0 8 4 NE - 10
17.07.2018 06:00:00 22,0 18,0 5 3 N - 10
17.07.2018 05:00:00 22,0 17,6 5 3 NNE 1010,2 10
17.07.2018 04:00:00 22,0 18,0 5 3 NNE - 10
17.07.2018 03:00:00 24,0 17,0 11 6 ENE - 10
17.07.2018 02:00:00 23,9 16,8 13 7 NE 1009,8 10
17.07.2018 01:00:00 24,0 17,0 11 6 NE - 10
17.07.2018 00:00:00 24,0 16,0 11 6 ENE - 10

tt = Température de l'air
td = dewpoint
ff = Vitesse du vent
dd = Direction du vent
ppp = reduced air pressure
vv = visibility

stations d'obs. à proximité